Location: Newark
(49.8969°N, 3.3422°E)
Time: 00:18:26
(UTC+00:00)

deb Explorer IX - Pass Details

Date: 27 January 2020
Orbit: 549 x 1099 km, 38.8° (Epoch: 27 February)

Event Time Altitude Azimuth Distance (km) Brightness Sun altitude
Rises 20:24:31 0° 217° (SW) 3,645 ? -37.1°
Enters shadow 20:26:56 - 207° (SSW) 2,965 ? -37.5°
Reaches altitude 10° 20:27:40 10° 203° (SSW) 2,779 - -37.6°
Maximum altitude 20:32:42 22° 155° (SSE) 2,119 - -38.4°
Drops below altitude 10° 20:38:00 10° 108° (ESE) 2,939 - -39.2°
Sets 20:41:25 0° 95° (E) 3,909 - -39.7°
